Simultaneous Nadir Overpasses (SNOs) Predictions

Prediction of SNOs between LANDSAT-8 and METOP-B Satellite Orbit:

Table of predicted SNOs for the next 14.0 days since TLE Epoch: 12/19/2014
Index Date (LANDSAT-8) Time (LANDSAT-8) Lat,Lon (LANDSAT-8) SZA (LANDSAT-8 ) Date (METOP-B) Time (METOP-B) Lat,Lon (METOP-B) SZA (METOP-B ) Distance(km) Time Diff (sec)
1 12/21/2014 00:37:32 -81.04, 29.11 73.68 12/21/2014 00:36:41 -81.04, 29.17 73.69 1.14 51
2 12/21/2014 01:26:57 81.07,-162.84 106.39 12/21/2014 01:27:20 81.06,-163.00 106.38 2.81 23
3 12/23/2014 20:11:47 -81.03, 95.46 73.73 12/23/2014 20:11:07 -81.03, 95.34 73.76 2.09 40
4 12/23/2014 21:01:11 81.08, -96.14 106.38 12/23/2014 21:01:44 81.08, -96.09 106.40 0.93 33
5 12/26/2014 15:45:59 -81.06, 162.27 73.79 12/26/2014 15:45:30 -81.05, 162.16 73.81 2.06 29
6
